OPS 4682 DEB, 38418

Orbit data source: Space-Track

OPS 4682 DEB, 38418 is space debris in LEO originally from a launch on Sat, 03 Apr 1965 UTC launched from the Air Force Western Test Range (AFWTR). Debris objects in space refer to the collection of defunct objects orbiting the Earth. Examples of debris include non-operational satellites, rocket bodies, and fragments generated from explosions, collisions, or faulty payload assembly.

Loading next visibility...
Identifier
38418, 1965-027DX
Orbit
LEO
Country
Flag of USUS
Related business
Manufacturer
Unknown
Mission
Spacecraft
Bus & Motor
Unknown
Mass
Unknown
Launch date (UTC)
1965-04-03 (61 years ago)
Launch vehicle
Unknown
Launch site
Air Force Western Test Range (AFWTR)
Object type
Payload
Rocket body
Debris
Shape & HBR
Unknown shape, 0.1 m
Radar Cross Section
Small (<0.1 m²)

Expand to show TLE details & history
Last TLE update: 11 hours ago

TLE from 11 hours ago
0 OPS 4682 DEB
1 38418U 65027DX  25301.61690923  .00000795  00000-0  25795-2 0  9992
2 38418  90.2399   3.6526 0031253 111.6905 248.7550 13.00850350521449
Epoch: 2025-10-28T14:48Z
TLE epoch observation values (Epoch: 2025-10-28T14:48:20.957Z)
Latitude
-0.00004°
Longitude
104.36345°
Altitude
1,270.357 km
Speed
7.216 km/s
True Right ascension
00h 14m 36s
True Declination
0° 00' 00"
Sunlit
Object was in full shadow at epoch
Visualization orbit readout
Latitude
Unknown
Longitude
Unknown
Altitude
Unknown
Speed
Unknown
Apparent Right ascension
Unknown
Apparent Declination
Unknown
Sunlit
N/A
Visualization observer readout
Local Sidereal Time
21:10:39
Azimuth
Unknown
Elevation
Unknown
Doppler factor
Unknown
Orbital elements
Apogee altitude
1,279.741 km
Perigee altitude
1,232.024 km
Semi-major axis
7,634.019 km
Eccentricity
0.00313
Inclination
90.2399°
RAAN
3.6526°
Arg. of periapsis
111.6905°
True anomaly
248.42168°
Mean anomaly
248.755°
Eccentric anomaly
248.58829°
Mean motion
3.25397 °/min
Orbital period
110.63 mins
BSTAR
0.0025795
Loading maneuver chart data...
Computing Atmospheric mass density...
Loading historical data...
Loading historical data...
Loading historical data...
Loading historical data...
Loading historical data...
Loading historical data...
Loading historical data...

Documentation

Showing up to 5 results
|